[[{"header":{"parameterUnit":"m.s-1","parameterCategory":1,"la1":30.2992,"la2":30.254,"lo1":-89.0895,"lo2":-89.0443,"dy":0.0025,"dx":0.0025,"nx":19,"ny":19,"refTime":"2026-04-19T21:00:00:Z","depth":0,"parameterNumber":2,"parameterNumberName":"U-component_of_WINDS"},"data":[0,0,0,-2.4149,-2.4149,-2.4138,-2.4138,-2.4142,-2.4142,0,0,0,0,0,0,0,0,0,0,0,-2.4164,-2.4165,-2.4149,-2.4149,-2.4138,-2.4138,-2.4142,-2.4142,0,0,0,0,0,0,0,0,0,0,0,-2.4164,-2.4164,-2.4165,-2.4149,-2.4138,-2.4138,-2.4142,-2.4143,0,0,0,0,0,0,0,0,0,0,-2.4151,-2.4177,-2.4164,-2.4165,-2.4149,-2.4138,-2.4138,-2.4143,-2.4143,-2.4155,0,-2.4169,0,-2.4156,-2.4144,-2.4144,0,0,0,-2.414,-2.4177,-2.4163,-2.4165,-2.4149,-2.4138,-2.414,-2.4143,-2.4143,-2.4155,-2.4169,-2.4168,-2.4156,-2.4144,-2.4144,-2.4241,-2.4242,0,0,-2.4141,-2.4169,-2.4163,-2.4164,-2.4168,-2.4141,-2.414,-2.4143,-2.416,-2.4169,-2.4168,-2.4156,-2.4144,-2.4144,-2.424,-2.4241,0,0,0,-2.4148,-2.4169,-2.4155,-2.4164,-2.4161,-2.4141,-2.414,-2.4159,-2.4152,-2.4168,-2.4156,-2.4144,-2.4144,-2.4239,-2.4241,-2.4312,0,0,0,-2.4148,-2.4174,-2.4156,-2.4173,-2.4161,-2.416,-2.4157,-2.4152,-2.4152,-2.4156,-2.4144,-2.4145,-2.4238,-2.424,-2.4308,-2.4342,0,0,0,-2.4161,-2.4175,-2.4178,-2.4174,-2.4171,-2.4159,-2.4152,-2.4151,-2.4145,-2.4144,-2.4145,-2.4238,-2.424,-2.4304,-2.4336,-2.4376,0,0,0,-2.4182,-2.4241,-2.4179,-2.424,-2.4171,-2.4203,-2.4152,-2.4175,-2.4182,-2.4144,-2.4239,-2.4241,-2.4303,-2.4332,-2.4372,-2.4416,-2.4437,0,0,-2.4272,-2.4253,-2.4286,-2.4231,-2.4282,-2.4203,-2.4263,-2.4244,-2.4218,-2.4235,-2.4237,-2.4309,-2.4335,-2.4375,-2.4539,-2.4556,0,0,0,-2.4324,-2.4349,-2.4356,-2.4365,-2.4351,-2.4342,-2.431,-2.4302,-2.4315,-2.4232,-2.4333,-2.4348,-2.437,-2.439,-2.4404,-2.4421,-2.4251,-2.425,-2.425,-2.4494,-2.4457,-2.451,-2.4471,-2.448,-2.4446,-2.4449,-2.4433,-2.4393,-2.4417,-2.4423,-2.4527,-2.4551,-2.4562,-2.458,-2.4442,-2.4442,-2.4442,-2.4442,-2.4623,-2.4653,-2.4597,-2.4629,-2.4589,-2.4615,-2.4583,-2.4554,-2.4572,-2.452,-2.4538,-2.4486,-2.4581,-2.4595,-2.4447,-2.4446,-2.4446,-2.4445,-2.4445,-2.4732,-2.4739,-2.4728,-2.4736,-2.4746,-2.4704,-2.4723,-2.4686,-2.4651,-2.4668,-2.467,-2.4669,-2.4664,-2.4671,-2.4672,-2.4672,-2.4672,-2.4672,-2.4673,-2.4849,-2.4834,-2.4856,-2.4845,-2.4845,-2.484,-2.4804,-2.4803,-2.4791,-2.4762,-2.4762,-2.4721,-2.4597,-2.4567,-2.4678,-2.4677,-2.4676,-2.4676,-2.4676,-2.4998,-2.4958,-2.4991,-2.4991,-2.4974,-2.4986,-2.4937,-2.4937,-2.493,-2.4941,-2.4894,-2.4808,-2.4786,-2.4774,-2.475,-2.4901,-2.4901,-2.4901,-2.4901,-2.5091,-2.5075,-2.51,-2.5102,-2.51,-2.5058,-2.5096,-2.5068,-2.5032,-2.5025,-2.4997,-2.4961,-2.4951,-2.4934,-2.4919,-2.4896,-2.5081,-2.5082,-2.5082,-2.518,-2.5162,-2.5203,-2.5168,-2.5151,-2.5137,-2.5172,-2.5176,-2.5126,-2.5088,-2.5019,-2.5012,-2.4952,-2.4935,-2.4898,-2.4875,-2.4832,0,0]},{"header":{"parameterUnit":"m.s-1","parameterCategory":1,"la1":30.2992,"la2":30.254,"lo1":-89.0895,"lo2":-89.0443,"dy":0.0025,"dx":0.0025,"nx":19,"ny":19,"refTime":"2026-04-19T21:00:00:Z","depth":0,"parameterNumber":3,"parameterNumberName":"V-component_of_WINDS"},"data":[0,0,0,-9.2224,-9.2228,-9.2415,-9.2416,-9.2668,-9.2671,0,0,0,0,0,0,0,0,0,0,0,-9.218,-9.2182,-9.2224,-9.2229,-9.2415,-9.2416,-9.2668,-9.2671,0,0,0,0,0,0,0,0,0,0,0,-9.2179,-9.2182,-9.2185,-9.2229,-9.2415,-9.2416,-9.2667,-9.252,0,0,0,0,0,0,0,0,0,0,-9.2336,-9.2308,-9.2181,-9.2185,-9.2231,-9.2415,-9.2416,-9.2513,-9.253,-9.259,0,-9.2651,0,-9.2665,-9.2689,-9.269,0,0,0,-9.2218,-9.2295,-9.2335,-9.2185,-9.2232,-9.2415,-9.2328,-9.2522,-9.2541,-9.2612,-9.2655,-9.2663,-9.267,-9.269,-9.2692,-9.3087,-9.3089,0,0,-9.2208,-9.2219,-9.2322,-9.2348,-9.2325,-9.2322,-9.2334,-9.2533,-9.2578,-9.2655,-9.2669,-9.2674,-9.2692,-9.2694,-9.3085,-9.3087,0,0,0,-9.2185,-9.2212,-9.2247,-9.2338,-9.2371,-9.2328,-9.2342,-9.2569,-9.258,-9.2672,-9.2677,-9.2694,-9.2697,-9.3082,-9.3086,-9.3214,0,0,0,-9.2179,-9.2199,-9.2243,-9.2252,-9.2368,-9.2473,-9.2374,-9.2566,-9.2588,-9.2676,-9.2694,-9.27,-9.3079,-9.3084,-9.3205,-9.3272,0,0,0,-9.2164,-9.2197,-9.2229,-9.2252,-9.2334,-9.247,-9.2492,-9.2571,-9.2592,-9.269,-9.2701,-9.3078,-9.3083,-9.3197,-9.3258,-9.338,0,0,0,-9.215,-9.2336,-9.2231,-9.2441,-9.2332,-9.2549,-9.249,-9.265,-9.2749,-9.2695,-9.308,-9.3085,-9.3194,-9.325,-9.3372,-9.3486,-9.3535,0,0,-9.2391,-9.2366,-9.2488,-9.24,-9.2639,-9.2519,-9.2776,-9.2853,-9.285,-9.3007,-9.3016,-9.3208,-9.3257,-9.3379,-9.3802,-9.384,0,0,0,-9.2568,-9.2657,-9.2718,-9.2816,-9.2883,-9.2945,-9.2983,-9.3012,-9.3146,-9.2935,-9.3284,-9.3313,-9.3383,-9.3437,-9.347,-9.353,-9.3111,-9.311,-9.3109,-9.2924,-9.2914,-9.3117,-9.3131,-9.3225,-9.3265,-9.334,-9.3385,-9.3343,-9.3426,-9.3472,-9.3731,-9.3795,-9.3819,-9.3882,-9.3531,-9.3532,-9.3532,-9.3532,-9.3277,-9.3401,-9.3346,-9.3524,-9.3511,-9.3657,-9.3702,-9.3668,-9.3802,-9.3694,-9.3756,-9.364,-9.3862,-9.3917,-9.3542,-9.354,-9.3539,-9.3538,-9.3537,-9.3509,-9.3567,-9.3603,-9.3745,-9.3854,-9.3859,-9.3992,-9.3973,-9.3957,-9.4018,-9.4066,-9.4064,-9.406,-9.4042,-9.4043,-9.4044,-9.4045,-9.4045,-9.4046,-9.3737,-9.3773,-9.3889,-9.3979,-9.404,-9.4118,-9.4161,-9.4219,-9.4279,-9.4255,-9.4255,-9.4206,-9.3887,-9.3807,-9.406,-9.4057,-9.4055,-9.4054,-9.4053,-9.4099,-9.4016,-9.4195,-9.4258,-9.4362,-9.4472,-9.4449,-9.457,-9.4615,-9.4681,-9.4619,-9.4386,-9.4357,-9.4331,-9.4265,-9.4621,-9.4621,-9.4621,-9.4621,-9.4296,-9.4281,-9.4463,-9.4564,-9.466,-9.4658,-9.4859,-9.4894,-9.4915,-9.4942,-9.4888,-9.4799,-9.4773,-9.4759,-9.4724,-9.4662,-9.5111,-9.5112,-9.5112,-9.4519,-9.4513,-9.469,-9.4715,-9.4796,-9.4864,-9.5053,-9.5168,-9.5174,-9.5131,-9.4963,-9.4943,-9.4799,-9.4752,-9.4705,-9.465,-9.4537,0,0]}]]